Whitefield, NH

1:18 PM EDT on July 22, 2017 (GMT -0400)
Mount Washington Regional

Weather History for KHIE - September, 2013

Change the Weather History Date:

Friday, September 13, 2013

  Actual Average Record
Temperature  
Mean Temperature 60 °F -  
Max Temperature 64 °F 68 °F 82 °F (2005)
Min Temperature 55 °F 41 °F 32 °F (2006)
Degree Days  
Heating Degree Days 6    
Growing Degree Days 10 (Base 50)    
Moisture  
Dew Point 57 °F    
Average Humidity 88    
Maximum Humidity 94    
Minimum Humidity 82    
Precipitation  
Precipitation 0.55 in - - ()
Sea Level Pressure  
Sea Level Pressure 29.69 in    
Wind  
Wind Speed 3 mph (NNW)    
Max Wind Speed 12 mph    
Max Gust Speed 20 mph    
Visibility 7 miles    
Events Rain    
Averages and records for this station are not official NWS values.
T = Trace of Precipitation, MM = Missing Value Source: NWS Daily Summary

Daily Weather History Graph

Daily Weather History Graph

Search for Another Location

Airport or City:

Trip Planner

Search our weather history database for the weather conditions in past years. The results will help you decide how hot, cold, wet, or windy it might be!

Date:

Astronomy

Sep. 13, 2013 Rise Set
Actual Time 6:23 AM EDT 7:00 PM EDT
Civil Twilight 5:53 AM EDT 7:29 PM EDT
Nautical Twilight 5:19 AM EDT 8:03 PM EDT
Astronomical Twilight 4:43 AM EDT 8:39 PM EDT
Moon 2:56 PM EDT (9/13) No Moon Set
Length of Visible Light 13h 35m
Length of Day
12h 36m
First Quarter, 61% of the Moon is Illuminated
Sep 13
First Quarter
Sep 19
Full
Sep 26
Last Quarter
Oct 4
New
Oct 11
First Quarter

Hourly Weather History & Observations

Time (EDT) Temp. Dew Point Humidity Pressure Visibility Wind Dir Wind Speed Gust Speed Precip Events Conditions
12:31 AM 62.6 °F 60.8 °F 94% 29.66 in 2.0 mi SE 3.5 mph - 0.05 in Rain Light Rain
12:40 AM 64.4 °F 60.8 °F 88% 29.66 in 5.0 mi SSE 3.5 mph - 0.05 in Rain Light Rain
12:52 AM 64.0 °F 61.0 °F 90% 29.65 in 9.0 mi Calm Calm - 0.05 in Rain Light Rain
1:52 AM 63.0 °F 60.1 °F 90% 29.62 in 10.0 mi Calm Calm - 0.00 in   Mostly Cloudy
2:52 AM 62.1 °F 60.1 °F 93% 29.62 in 8.0 mi Calm Calm - N/A   Overcast
3:50 AM 62.6 °F 60.8 °F 94% 29.64 in 9.0 mi Calm Calm - N/A   Overcast
3:52 AM 62.1 °F 60.1 °F 93% 29.62 in 9.0 mi Calm Calm - N/A   Overcast
4:13 AM 62.6 °F 60.8 °F 94% 29.64 in 8.0 mi Calm Calm - N/A   Overcast
4:41 AM 62.6 °F 59.0 °F 88% 29.63 in 6.0 mi WSW 3.5 mph - 0.01 in Rain Light Rain
4:52 AM 62.1 °F 60.1 °F 93% 29.62 in 6.0 mi NNW 6.9 mph - 0.01 in Rain Light Rain
4:59 AM 62.6 °F 60.8 °F 94% 29.64 in 6.0 mi NNW 4.6 mph - 0.00 in Rain Light Rain
5:34 AM 62.6 °F 59.0 °F 88% 29.65 in 9.0 mi Calm Calm - 0.03 in Rain Light Rain
5:52 AM 63.0 °F 59.0 °F 87% 29.64 in 10.0 mi Calm Calm - 0.03 in   Overcast
6:15 AM 62.6 °F 60.8 °F 94% 29.65 in 10.0 mi Calm Calm - N/A   Overcast
6:52 AM 62.1 °F 59.0 °F 90% 29.66 in 10.0 mi Calm Calm - N/A   Overcast
7:52 AM 62.1 °F 60.1 °F 93% 29.67 in 8.0 mi Calm Calm - 0.00 in Rain Light Rain
8:52 AM 63.0 °F 60.1 °F 90% 29.67 in 10.0 mi Calm Calm - 0.00 in Rain Light Rain
9:20 AM 64.4 °F 60.8 °F 88% 29.67 in 10.0 mi Calm Calm - 0.00 in   Overcast
9:52 AM 64.9 °F 60.1 °F 84% 29.67 in 10.0 mi Calm Calm - 0.00 in   Overcast
10:26 AM 64.4 °F 60.8 °F 88% 29.68 in 10.0 mi Variable 4.6 mph - N/A   Overcast
10:36 AM 64.4 °F 60.8 °F 88% 29.67 in 10.0 mi North 4.6 mph - N/A   Overcast
10:52 AM 64.0 °F 60.1 °F 87% 29.67 in 10.0 mi North 5.8 mph - N/A   Overcast
11:08 AM 62.6 °F 57.2 °F 82% 29.68 in 6.0 mi North 11.5 mph 19.6 mph 0.00 in Rain Light Rain
11:21 AM 60.8 °F 57.2 °F 88% 29.68 in 2.0 mi NW 9.2 mph - 0.03 in Rain Rain
11:28 AM 60.8 °F 57.2 °F 88% 29.68 in 2.0 mi NNW 6.9 mph - 0.05 in Rain Rain
11:37 AM 60.8 °F 57.2 °F 88% 29.68 in 1.2 mi North 5.8 mph - 0.09 in Rain Heavy Rain
11:52 AM 61.0 °F 57.9 °F 90% 29.69 in 2.5 mi Variable 3.5 mph - 0.12 in Rain Light Rain
11:59 AM 60.8 °F 57.2 °F 88% 29.69 in 4.0 mi Calm Calm - 0.00 in Rain Light Rain
12:08 PM 60.8 °F 57.2 °F 88% 29.69 in 3.0 mi Calm Calm - 0.01 in Rain Light Rain
12:17 PM 60.8 °F 57.2 °F 88% 29.69 in 2.5 mi WNW 3.5 mph - 0.02 in Rain Light Rain
12:32 PM 60.8 °F 57.2 °F 88% 29.69 in 3.0 mi WNW 3.5 mph - 0.03 in Rain Light Rain
12:37 PM 60.8 °F 57.2 °F 88% 29.69 in 2.0 mi NW 3.5 mph - 0.05 in Rain Rain
12:43 PM 60.8 °F 57.2 °F 88% 29.69 in 1.0 mi WNW 5.8 mph - 0.09 in Rain Heavy Rain
12:52 PM 60.1 °F 57.0 °F 90% 29.70 in 1.2 mi WNW 6.9 mph - 0.13 in Rain Rain
12:58 PM 60.8 °F 57.2 °F 88% 29.70 in 2.0 mi WNW 3.5 mph - 0.01 in Rain Rain
1:07 PM 60.8 °F 57.2 °F 88% 29.70 in 1.2 mi Calm Calm - 0.05 in Rain Heavy Rain
1:25 PM 60.8 °F 57.2 °F 88% 29.69 in 3.0 mi North 6.9 mph - 0.10 in Rain Rain
1:52 PM 62.1 °F 57.9 °F 86% 29.68 in 6.0 mi Variable 4.6 mph - 0.12 in Rain Light Rain
1:59 PM 62.6 °F 57.2 °F 82% 29.68 in 9.0 mi North 8.1 mph - 0.00 in Rain Light Rain
2:52 PM 61.0 °F 55.9 °F 83% 29.69 in 10.0 mi North 4.6 mph - 0.00 in Rain Light Rain
3:22 PM 60.8 °F 57.2 °F 88% 29.70 in 8.0 mi NW 4.6 mph - 0.00 in Rain Light Rain
3:36 PM 60.8 °F 55.4 °F 82% 29.70 in 5.0 mi NW 5.8 mph - 0.01 in Rain Light Rain
3:52 PM 60.1 °F 57.0 °F 90% 29.71 in 6.0 mi North 3.5 mph - 0.02 in Rain Light Rain
4:08 PM 59.0 °F 55.4 °F 88% 29.72 in 5.0 mi North 6.9 mph - 0.01 in Rain Light Rain
4:27 PM 59.0 °F 55.4 °F 88% 29.72 in 5.0 mi North 5.8 mph - 0.04 in Rain Light Rain
4:52 PM 57.9 °F 53.1 °F 84% 29.73 in 9.0 mi North 8.1 mph - 0.05 in Rain Light Rain
5:45 PM 57.2 °F 53.6 °F 88% 29.74 in 10.0 mi WNW 4.6 mph - 0.01 in   Overcast
5:52 PM 57.0 °F 53.1 °F 87% 29.74 in 10.0 mi West 4.6 mph - 0.01 in   Overcast
6:52 PM 57.0 °F 52.0 °F 83% 29.75 in 10.0 mi NW 3.5 mph - N/A   Overcast
7:52 PM 55.9 °F 53.1 °F 90% 29.77 in 10.0 mi Calm Calm - 0.01 in   Overcast
8:52 PM 55.9 °F 52.0 °F 87% 29.80 in 10.0 mi Calm Calm - N/A   Overcast
9:52 PM 55.0 °F 52.0 °F 89% 29.81 in 10.0 mi Calm Calm - N/A   Overcast
10:04 PM 55.4 °F 51.8 °F 88% 29.80 in 10.0 mi Calm Calm - N/A   Overcast
10:52 PM 55.0 °F 51.1 °F 86% 29.82 in 10.0 mi Calm Calm - N/A   Overcast
11:32 PM 55.4 °F 51.8 °F 88% 29.81 in 10.0 mi Calm Calm - N/A   Overcast
11:52 PM 55.0 °F 51.1 °F 86% 29.81 in 10.0 mi Calm Calm - N/A   Overcast